This is the latest recevied weather packets stored in our database for station/object s59zo-6. If no packets are shown the sender has not sent any weather packets the latest 10 day(s).
| Time | Temp. | Humidity | Pressure | Rain* | Wind** | Luminosity | Snow |
|---|---|---|---|---|---|---|---|
| 1787598005 | 22.22° C | 55% | 1020 hPa | 0 mm | - | - | - |
| 1787597705 | 22.78° C | 55% | 1020 hPa | 0 mm | - | - | - |
| 1787597406 | 22.78° C | 54% | 1020 hPa | 0 mm | - | - | - |
| 1787597105 | 23.33° C | 52% | 1020 hPa | 0 mm | - | - | - |
| 1787596805 | 23.89° C | 51% | 1019.8 hPa | 0 mm | - | - | - |
| 1787596505 | 23.89° C | 50% | 1019.8 hPa | 0 mm | - | - | - |
| 1787596205 | 24.44° C | 50% | 1019.7 hPa | 0 mm | - | - | - |
| 1787595904 | 24.44° C | 48% | 1019.7 hPa | 0 mm | - | - | - |
| 1787595605 | 25° C | 46% | 1019.7 hPa | 0 mm | - | - | - |
| 1787595305 | 25° C | 45% | 1019.5 hPa | 0 mm | - | - | - |
| 1787595005 | 25° C | 45% | 1019.5 hPa | 0 mm | - | - | - |
| 1787594704 | 25.56° C | 45% | 1019.6 hPa | 0 mm | - | - | - |
| 1787594405 | 25.56° C | 45% | 1019.4 hPa | 0 mm | - | - | - |
| 1787594105 | 26.11° C | 43% | 1019.1 hPa | 0 mm | - | - | - |
| 1787593805 | 26.67° C | 41% | 1019.2 hPa | 0 mm | - | - | - |
| 1787593504 | 27.22° C | 40% | 1019.1 hPa | 0 mm | - | - | - |
| 1787593205 | 27.78° C | 35% | 1019.2 hPa | 0 mm | - | - | - |
| 1787592905 | 27.78° C | 35% | 1019.1 hPa | 0 mm | - | - | - |
| 1787592605 | 27.78° C | 34% | 1019.2 hPa | 0 mm | - | - | - |
| 1787592304 | 28.33° C | 34% | 1019.2 hPa | 0 mm | - | - | - |
| 1787592005 | 28.33° C | 33% | 1019.2 hPa | 0 mm | - | - | - |
| 1787591705 | 28.89° C | 34% | 1019.3 hPa | 0 mm | - | - | - |
| 1787591405 | 28.33° C | 34% | 1019.4 hPa | 0 mm | - | - | - |
| 1787591105 | 28.33° C | 34% | 1019.3 hPa | 0 mm | - | - | - |
| 1787590805 | 28.33° C | 34% | 1019.3 hPa | 0 mm | - | - | - |
* Rain latest hour (hover to see other rain measurements)
** Current wind speed in m/s (hover to see current wind gust speed)